GFSSW_850_spd_273.txt.gz
Wind_Speed
11 9 8 7 7 7 8 8 9 9 8 8 8 8 9 10 13 17 21 14 10 10 10 10 9 9 5 16 14 19 2 6 12 9 7 12 12 12 17 30 12 20 14 12 25
12 11 10 8 7 6 7 8 8 8 8 9 8 8 9 11 15 23 18 14 13 10 10 12 8 6 10 11 11 6 2 9 11 8 7 14 16 27 15 19 12 19 18 16 27
12 11 10 9 8 6 6 7 7 8 8 8 8 8 9 10 15 9 5 12 12 12 14 13 10 16 18 19 26 17 11 10 21 13 10 12 13 8 34 8 27 29 27 26 29
13 12 11 10 8 6 6 6 6 7 7 8 8 8 8 7 2 5 6 5 9 13 15 14 14 18 8 8 23 9 24 22 25 10 7 9 18 7 21 24 21 30 34 31 29
13 12 10 10 8 6 5 5 5 6 6 7 8 8 7 7 17 10 7 4 12 14 16 13 13 17 7 11 20 8 19 28 26 20 2 1 12 3 6 22 23 26 30 29 30
15 13 11 10 8 6 5 4 4 5 6 7 8 8 7 7 8 6 9 4 8 13 15 12 13 16 18 18 9 27 26 25 20 19 9 4 15 6 7 14 7 14 17 18 17
16 12 10 9 7 5 4 4 4 4 5 6 7 8 11 19 2 6 9 5 8 6 10 10 16 19 17 10 26 25 8 7 12 9 7 15 7 7 17 14 14 11 7 14 7
17 12 10 8 7 4 3 4 4 3 3 3 5 7 11 10 10 14 8 3 7 12 14 14 15 18 11 19 20 9 4 4 9 9 13 8 8 8 15 17 13 13 18 18 23
17 13 10 8 5 3 3 3 3 3 3 3 4 5 12 5 13 13 13 13 9 8 11 12 12 7 12 6 6 6 5 8 11 20 8 8 7 10 21 21 18 24 24 20 19
18 14 11 7 2 3 2 2 3 4 4 5 9 7 13 17 16 17 16 13 14 7 10 12 3 2 5 2 8 9 7 8 13 16 18 9 9 6 17 17 19 25 30 23 15
18 14 10 5 1 4 2 1 3 3 10 13 11 14 10 3 10 13 18 15 14 11 6 14 3 8 12 12 14 11 11 10 14 8 10 10 9 9 23 26 20 23 31 25 17
17 14 8 4 2 2 3 4 12 12 14 20 27 28 30 16 8 13 18 16 15 7 9 7 11 12 13 16 15 16 14 14 8 5 6 10 9 9 10 13 28 30 33 29 21
15 11 6 4 2 1 4 4 10 16 7 19 29 30 28 18 15 14 21 21 11 8 9 10 13 17 16 16 15 12 8 5 6 10 4 6 5 7 7 22 22 31 34 29 26
14 8 2 2 4 5 13 9 15 14 3 6 8 16 24 23 15 19 25 21 12 12 12 11 14 18 15 14 11 8 10 3 9 8 5 1 5 7 9 10 9 25 33 29 24
13 5 3 3 4 8 12 11 13 4 4 8 7 4 7 27 5 22 26 27 14 13 9 19 10 14 14 15 9 9 7 7 7 7 6 15 1 8 9 12 14 22 32 34 27
12 5 2 2 4 13 15 11 6 1 6 5 6 6 5 9 19 26 16 25 24 14 15 18 29 16 13 15 13 11 7 7 7 4 11 8 10 14 6 9 17 23 31 38 35
12 5 3 3 6 14 12 10 2 3 12 9 7 6 3 6 9 11 12 11 12 5 8 14 21 20 23 14 12 5 3 3 5 3 10 7 7 12 12 17 16 25 36 40 39
11 4 1 3 7 13 9 3 3 9 10 13 12 12 6 8 12 8 10 8 9 10 9 11 16 18 22 18 11 9 8 6 10 6 13 9 17 18 16 24 21 42 40 40 41
7 4 3 5 8 8 7 2 3 7 12 12 11 6 7 15 13 10 10 13 12 12 14 13 23 21 21 16 13 11 12 10 12 7 7 9 10 9 2 9 22 32 35 36 37
6 5 5 5 7 6 1 4 4 12 11 11 6 9 10 14 14 16 8 7 13 12 15 7 18 16 21 20 20 10 10 6 1 7 9 8 9 7 6 12 15 17 27 31 33
2 2 12 14 6 3 2 3 6 20 20 10 11 8 10 12 15 13 5 16 23 24 18 6 4 3 7 17 18 11 4 5 5 6 7 13 11 5 5 18 23 20 27 32 34
7 4 22 16 5 6 7 9 14 20 26 16 11 12 11 13 8 9 6 9 39 33 12 11 5 7 9 14 16 8 5 11 11 10 3 1 7 1 12 16 25 24 32 33 23
6 7 30 13 5 6 12 12 17 20 21 14 11 12 14 14 8 13 18 29 40 26 15 12 6 5 9 6 7 7 6 3 4 16 20 11 8 4 7 12 17 23 23 29 34
8 4 12 25 23 10 6 15 13 27 21 21 11 14 18 15 14 14 16 17 36 33 27 19 5 7 8 11 15 10 14 6 5 4 4 13 20 15 10 5 16 21 21 20 27
12 6 11 5 11 18 14 11 16 14 18 22 9 15 13 7 13 10 22 24 28 20 24 13 7 15 26 22 18 23 22 20 13 7 7 8 8 13 19 6 13 22 16 15 25
8 7 13 6 19 13 12 9 13 13 9 11 8 10 9 7 8 17 17 15 13 16 16 7 6 17 20 16 14 20 21 23 19 13 8 8 8 9 25 19 21 5 12 24 27
20 20 8 15 17 7 5 7 10 12 8 15 14 7 8 13 21 24 26 30 29 20 17 13 6 1 10 16 21 10 11 13 16 8 5 6 13 12 14 12 22 22 20 30 26

GFSSW_850_spd_276.txt.gz
Wind_Speed
9 8 8 7 7 7 8 8 9 9 8 8 8 8 9 11 12 16 21 15 9 13 9 6 8 9 4 3 5 4 3 2 3 4 3 14 6 2 3 16 11 9 7 30 29
10 9 9 7 7 7 7 8 8 8 8 8 9 8 10 11 14 19 11 12 10 10 5 6 7 4 5 3 3 3 4 5 6 3 3 15 4 13 8 10 6 14 12 34 36
11 10 9 8 7 6 6 7 7 7 8 8 8 9 10 10 14 2 5 3 11 13 6 5 6 6 6 6 4 3 5 5 19 19 23 18 14 12 11 4 19 26 24 34 39
13 11 10 9 8 7 6 6 6 6 7 7 8 9 9 7 3 2 5 3 6 10 10 7 7 3 4 3 7 4 8 13 23 19 12 3 20 10 16 18 31 29 26 34 39
14 12 10 9 8 6 5 5 5 6 6 7 8 8 8 7 14 8 5 5 8 11 10 10 11 6 3 4 10 5 13 21 27 24 16 7 7 12 24 16 27 29 31 35 36
15 12 9 8 7 5 5 4 4 5 6 7 8 8 8 6 4 3 4 8 7 10 12 15 7 5 9 6 5 14 17 24 30 30 8 6 4 4 22 19 26 32 34 35 36
15 11 9 8 6 4 4 4 3 3 4 6 7 8 12 19 6 2 4 4 3 7 12 13 7 10 3 9 11 12 6 9 10 8 6 8 4 5 11 23 28 30 24 15 20
16 12 10 7 6 3 3 3 3 3 3 3 5 8 11 3 13 12 6 2 8 7 7 6 11 19 14 9 10 5 1 4 8 3 5 7 10 10 15 19 24 23 29 28 34
17 13 11 7 4 2 2 2 3 3 3 3 4 6 12 6 16 16 13 5 9 5 6 10 13 7 2 4 6 5 5 7 9 6 4 6 11 11 15 26 25 31 35 36 34
17 15 11 5 1 3 1 1 2 4 4 4 7 7 11 4 14 14 14 10 9 8 11 7 3 2 4 4 8 4 4 5 7 6 5 7 12 6 17 30 30 30 34 36 36
17 14 10 5 3 3 1 1 4 3 8 11 11 13 19 7 4 13 15 18 15 10 5 7 2 8 10 8 5 4 5 10 15 12 5 15 19 11 22 27 28 28 35 36 34
16 12 8 5 4 3 1 3 5 8 13 19 24 28 28 24 10 16 18 17 12 6 3 3 9 9 8 8 7 7 9 16 16 8 6 4 16 9 9 16 37 34 32 37 33
15 9 6 6 4 3 6 6 14 10 7 17 19 22 26 10 12 15 23 24 6 4 5 8 9 5 9 10 8 11 7 15 16 6 3 3 8 1 8 12 27 33 42 38 37
13 7 1 2 2 7 13 13 9 8 5 7 4 4 10 16 8 15 23 21 6 9 5 8 13 13 11 9 8 10 11 15 9 0 4 5 4 5 5 10 16 27 32 40 36
12 5 2 1 2 10 16 11 9 4 3 1 3 3 5 13 1 10 21 23 10 10 6 9 7 4 6 11 8 13 17 13 9 4 2 1 4 8 4 8 8 19 34 42 40
11 3 3 1 5 12 12 14 6 5 2 5 4 2 3 16 12 8 13 20 23 6 5 12 17 6 9 11 8 11 6 5 3 2 8 7 7 8 5 8 6 16 24 30 36
10 2 3 2 8 12 12 6 5 3 9 8 5 7 5 3 5 3 5 4 6 4 7 15 18 15 13 10 14 6 5 4 4 3 8 6 6 9 6 10 10 19 30 39 40
7 4 7 5 10 14 11 5 4 4 5 7 6 9 4 11 5 7 8 6 3 5 11 10 13 8 10 9 10 8 8 5 9 5 10 6 6 10 11 19 23 30 45 37 35
8 12 9 9 10 9 5 5 4 7 8 7 7 7 7 8 8 10 8 15 9 16 6 5 13 9 6 8 9 9 5 8 9 2 1 5 8 6 4 7 18 19 36 37 36
13 13 12 6 7 5 5 1 6 20 9 4 6 6 7 10 9 8 4 18 15 22 19 9 8 4 8 12 16 8 5 7 1 4 11 4 6 7 7 6 3 12 28 33 35
9 5 23 10 3 5 4 4 8 28 18 11 8 6 6 9 5 6 15 14 26 22 16 13 3 5 4 4 5 4 3 3 3 5 11 16 8 7 11 11 15 17 34 40 45
11 6 27 8 10 5 4 7 9 25 23 12 10 12 6 10 5 7 13 10 27 26 11 13 5 5 10 8 10 8 9 6 3 7 2 3 5 1 9 6 4 13 24 37 47
10 11 36 8 4 4 5 13 21 14 17 8 12 10 5 6 5 6 11 16 27 18 12 11 4 7 11 3 12 7 9 15 7 3 9 8 9 3 10 12 18 19 18 16 13
5 4 14 31 23 5 3 9 8 20 20 10 7 6 5 4 3 5 12 11 22 17 19 12 3 2 6 8 11 16 23 18 9 3 4 7 13 6 6 11 14 23 21 14 17
9 6 8 4 10 13 16 3 10 6 9 10 5 4 4 5 6 7 7 10 15 16 9 2 6 9 13 14 18 21 21 15 13 9 6 6 7 6 4 10 20 24 21 15 24
9 8 12 10 23 17 7 6 7 7 7 9 7 6 8 4 2 12 13 12 7 4 4 3 5 9 20 18 18 17 18 20 14 9 7 8 7 8 19 15 18 28 28 29 34
18 16 10 11 13 6 4 8 10 16 16 17 12 4 5 7 20 24 25 27 21 8 7 3 5 2 14 8 15 11 8 5 5 7 2 3 6 9 8 6 21 30 31 33 36

GFSSW_850_spd_279.txt.gz
Wind_Speed
10 9 8 8 8 8 8 8 9 9 9 9 9 9 10 11 13 16 19 14 9 14 11 9 4 2 2 4 3 3 4 1 3 1 2 1 2 7 5 3 4 4 8 18 29
11 9 9 8 8 8 8 8 8 8 9 9 9 9 10 11 14 17 5 8 10 9 12 10 4 2 4 3 2 4 4 8 5 4 1 10 7 6 2 3 2 8 10 25 33
12 11 10 9 8 7 7 7 8 8 8 9 9 10 10 10 14 1 5 4 14 12 8 6 4 2 3 4 3 3 5 5 8 11 6 12 6 7 3 4 17 26 26 30 32
14 11 10 9 8 7 7 7 7 7 8 8 8 9 9 7 1 2 4 3 8 14 12 7 5 4 3 4 5 2 8 7 7 2 2 3 10 7 17 10 14 20 33 35 34
15 11 9 8 7 6 6 6 6 7 7 7 7 8 7 6 10 7 4 2 6 12 12 9 9 4 2 3 2 5 6 11 13 18 12 12 17 11 20 16 13 18 33 36 37
16 12 9 7 7 6 5 5 5 6 6 6 7 8 8 5 4 2 0 4 7 11 12 13 8 5 4 2 4 3 7 15 10 21 13 12 12 6 23 20 15 23 28 30 36
16 13 10 7 6 5 5 4 4 4 5 5 6 8 12 18 5 5 1 3 5 7 11 12 10 2 3 8 4 4 5 6 4 8 5 10 4 10 12 24 20 22 25 24 31
17 14 10 7 5 3 3 3 3 4 4 4 5 7 9 4 13 11 4 2 5 5 7 6 6 9 5 6 6 5 3 3 6 3 4 6 9 10 10 21 23 25 25 25 30
18 15 11 7 3 2 2 0 2 3 4 4 5 5 10 6 13 15 9 3 6 6 6 5 9 6 2 3 5 7 3 2 8 5 4 3 7 8 9 21 27 25 28 28 29
18 14 10 5 2 4 3 1 2 4 4 4 7 6 8 2 6 11 11 10 6 4 6 5 4 2 4 4 5 3 2 3 4 5 1 5 10 8 9 24 28 30 29 31 31
17 13 9 5 5 5 3 1 3 3 6 10 13 17 23 14 8 5 11 15 14 2 3 0 3 7 7 6 6 3 3 5 6 3 3 9 12 17 12 21 18 26 31 34 34
15 10 7 6 5 4 1 4 8 8 11 19 22 27 27 21 7 6 12 11 8 5 1 4 7 7 5 3 4 5 4 11 8 5 5 12 12 15 9 21 35 31 29 37 39
12 7 4 6 3 3 8 14 14 10 5 10 9 15 20 13 12 18 13 21 4 6 5 7 7 5 6 5 5 6 5 8 9 10 6 6 8 5 3 6 25 31 42 45 48
11 5 2 1 3 6 8 12 13 7 5 6 3 1 8 6 5 16 15 18 1 9 6 7 9 11 6 7 7 6 8 12 10 1 6 3 6 6 3 6 8 18 28 41 43
10 3 2 2 3 8 11 11 9 3 4 4 3 2 8 10 2 2 19 20 10 8 6 10 4 4 5 8 6 10 5 8 11 6 2 4 3 8 2 3 8 16 28 36 37
8 1 3 3 4 12 14 6 1 5 2 7 5 6 1 4 4 5 8 14 9 5 4 10 6 5 8 9 8 5 4 1 3 3 4 8 7 6 5 7 6 12 26 31 40
5 3 4 7 10 12 11 1 4 3 7 8 6 8 5 8 9 10 6 16 9 8 4 13 13 6 5 5 8 5 5 4 5 2 7 6 4 8 7 9 10 13 33 42 41
6 14 11 4 4 10 10 5 6 6 5 4 6 6 6 11 7 12 6 9 15 11 4 3 9 7 4 11 14 7 9 6 6 4 9 3 7 7 12 19 16 23 29 36 41
15 13 7 3 8 9 4 6 2 6 11 11 5 5 8 7 6 5 9 11 12 14 6 8 6 10 13 5 8 4 4 7 4 4 2 5 8 6 6 9 10 17 24 36 45
16 10 11 9 8 6 6 6 4 12 9 3 6 12 9 10 9 8 6 13 9 14 10 7 8 9 8 5 5 8 5 6 1 4 8 5 6 6 7 11 9 6 21 27 30
9 2 20 9 6 15 4 5 5 18 10 8 6 6 6 6 5 6 9 7 16 12 11 6 2 8 9 3 5 5 3 2 3 5 9 11 8 6 8 9 10 8 22 36 42
5 5 25 6 10 6 4 5 8 17 15 11 6 7 4 6 5 3 5 5 19 18 6 4 4 5 7 22 8 5 9 7 3 7 3 2 8 4 4 3 6 10 17 21 24
9 10 35 7 5 3 8 8 12 12 10 4 6 6 3 4 3 6 6 6 19 15 8 6 3 7 10 3 6 7 7 13 6 3 6 3 6 2 6 8 14 21 24 28 28
6 4 15 33 15 8 4 9 4 12 16 9 4 4 4 4 3 3 9 7 24 19 12 3 2 5 9 9 9 16 17 10 4 4 9 10 11 8 12 8 6 23 33 35 34
9 6 11 4 10 16 16 4 6 5 9 16 7 6 3 5 6 5 3 10 7 8 4 2 4 7 12 13 14 20 25 18 13 11 11 20 20 7 11 12 16 12 30 34 38
9 9 21 9 14 16 9 4 9 4 6 4 5 1 4 3 4 6 7 2 6 4 2 1 4 5 15 16 18 12 12 15 16 18 13 19 20 3 19 21 15 19 26 29 33
28 15 9 13 7 5 4 5 7 8 10 12 8 4 3 4 18 25 24 21 14 3 2 0 2 3 10 7 8 9 4 7 12 4 2 4 4 12 17 16 19 13 12 24 34

GFSSW_850_spd_285.txt.gz
Wind_Speed
12 10 9 8 7 7 6 6 7 7 7 7 7 7 7 8 9 11 12 8 8 16 9 11 9 8 8 6 5 4 3 2 2 2 6 3 6 5 6 5 4 5 2 5 20
13 11 9 8 7 7 6 6 6 7 6 7 7 7 7 8 11 12 3 5 9 12 17 14 9 8 5 6 5 4 4 3 2 2 5 7 4 5 6 8 7 6 6 11 21
15 11 9 8 7 6 6 6 6 6 6 6 6 6 6 7 10 4 3 2 7 11 11 16 10 9 5 5 5 5 8 4 3 5 2 2 3 5 6 8 9 13 14 20 24
16 11 9 7 6 6 6 6 5 5 5 5 5 5 5 5 1 5 2 3 6 14 12 12 10 6 5 6 4 5 6 4 2 4 1 3 1 4 10 6 7 11 16 25 28
16 12 9 7 6 5 5 5 4 3 4 4 5 5 5 5 7 4 3 1 6 15 12 10 9 6 5 4 6 5 3 4 5 6 8 8 9 8 13 10 5 13 19 28 30
16 12 9 7 5 4 4 4 3 3 3 3 5 5 5 4 5 3 3 3 6 10 12 9 4 5 4 3 6 3 4 3 6 5 6 6 2 3 10 12 12 12 20 28 32
16 12 10 6 4 3 3 3 3 2 2 4 5 4 8 10 4 3 4 5 5 7 7 7 5 3 4 3 1 1 3 3 7 5 6 8 4 7 6 7 13 18 20 24 33
16 12 10 5 2 1 1 2 2 1 2 3 3 4 6 3 4 9 6 2 6 7 6 7 8 1 0 2 2 2 1 8 6 5 2 9 16 11 8 7 10 16 18 25 30
15 12 9 4 2 4 3 1 0 1 2 3 3 3 5 3 2 10 9 3 7 9 11 11 4 2 2 2 2 2 5 4 4 1 2 8 8 7 5 9 10 18 23 25 28
13 10 8 4 6 6 5 4 3 2 3 4 6 3 2 1 6 5 12 6 6 9 5 2 3 2 2 3 6 3 3 3 6 3 2 3 10 13 13 9 15 17 25 26 27
12 8 5 4 7 7 6 2 5 2 5 6 8 9 11 4 3 3 13 12 6 4 2 2 4 5 6 4 2 2 4 9 8 9 7 14 12 13 13 13 17 17 23 28 32
10 5 3 5 7 8 10 5 6 6 7 9 10 17 16 6 4 1 10 9 5 4 4 3 6 7 2 6 5 5 7 11 9 6 5 11 15 15 13 11 13 20 23 30 37
8 2 3 4 5 5 5 8 11 7 3 5 5 3 1 11 5 3 11 8 3 5 5 5 1 5 5 4 6 7 11 7 9 5 10 12 13 10 5 8 12 17 21 23 32
6 3 6 3 4 2 1 9 11 4 2 7 3 4 3 1 5 3 7 1 3 5 5 5 3 7 6 8 8 10 9 11 9 4 6 2 8 10 9 8 10 15 17 21 26
5 3 7 7 4 2 6 11 7 1 2 9 6 6 6 5 5 10 16 1 4 1 4 1 3 3 4 3 8 5 2 6 7 8 7 12 7 9 4 7 10 11 16 18 21
1 5 8 7 6 4 8 6 2 1 3 5 6 11 4 16 8 9 10 14 6 3 3 3 4 4 6 3 8 4 10 6 2 4 11 16 12 12 12 11 10 9 13 16 17
7 10 8 7 5 4 5 3 1 1 7 9 6 8 9 12 9 9 16 19 9 6 9 9 2 5 11 10 8 7 7 6 6 8 14 8 8 12 7 13 13 13 16 17 19
14 11 6 3 1 2 0 2 2 3 4 6 6 3 7 12 8 11 6 7 18 9 4 7 1 10 16 7 8 12 6 6 11 10 13 1 9 10 11 15 13 14 16 16 18
12 5 5 3 2 1 4 6 2 2 6 8 3 6 5 6 5 6 10 6 12 13 7 7 4 11 6 15 7 3 5 10 12 15 11 12 16 12 12 14 13 17 21 20 21
8 4 12 4 3 4 8 5 3 6 4 2 4 5 5 9 4 6 4 7 5 12 6 3 7 6 13 11 8 7 10 4 5 9 18 12 11 10 11 17 19 23 27 30 24
5 2 16 2 4 13 5 5 4 10 3 5 3 4 6 4 6 4 4 4 8 8 5 5 2 6 9 8 15 10 3 5 4 5 9 16 11 5 11 15 18 24 29 30 28
2 2 20 3 9 5 4 3 4 8 11 8 6 7 4 7 5 4 3 4 9 7 4 6 2 4 11 13 8 9 7 7 4 6 5 5 8 9 12 17 22 29 32 30 25
8 9 19 5 5 6 13 13 12 7 10 4 6 7 6 4 4 6 3 1 9 5 3 4 1 6 4 5 5 5 12 9 11 11 14 8 7 3 27 28 29 32 33 31 26
6 3 15 24 17 13 10 6 6 9 13 10 5 7 3 5 5 5 4 2 8 4 8 1 1 3 4 10 12 18 20 18 11 7 14 23 28 25 28 31 40 38 32 29 26
7 5 4 4 12 16 9 5 8 4 6 12 4 6 3 3 3 3 4 6 6 6 4 2 2 3 13 16 13 16 18 19 19 17 17 28 29 26 27 27 35 35 32 28 26
8 8 17 8 9 15 9 5 7 5 5 4 3 4 2 3 3 2 3 2 2 5 3 1 3 7 11 9 9 17 15 13 15 17 19 25 28 21 30 30 32 31 33 29 28
27 19 10 9 6 6 4 3 2 6 5 6 2 1 2 1 4 7 7 6 6 3 1 1 5 9 5 13 16 3 5 6 10 17 21 22 27 24 19 23 27 34 38 31 29

GFSSW_850_spd_288.txt.gz
Wind_Speed
10 9 7 6 6 6 6 6 7 7 7 8 7 8 8 8 9 11 12 11 10 15 9 10 8 8 8 11 8 7 10 9 5 5 4 4 9 9 5 5 7 6 1 7 19
11 8 7 6 6 6 6 6 6 6 6 6 7 7 7 8 10 13 10 8 10 11 17 10 11 11 16 15 11 12 11 8 3 2 6 4 6 14 9 8 10 8 6 14 19
12 9 7 5 6 6 6 5 5 6 6 6 6 6 6 6 7 3 5 3 6 11 11 12 9 11 18 16 17 16 14 4 6 5 6 6 5 8 13 11 11 12 12 18 19
13 10 8 5 5 5 5 5 5 5 6 5 5 5 5 4 1 5 4 4 7 11 9 12 11 14 16 16 17 15 18 8 5 4 8 6 3 6 12 10 2 7 17 22 23
13 11 8 6 4 4 4 4 5 5 5 4 5 5 3 4 5 7 5 4 6 12 9 10 12 13 14 15 12 17 18 10 12 10 11 11 9 8 11 10 7 7 19 22 23
13 11 9 6 5 4 4 5 5 4 5 4 4 3 2 7 6 4 3 4 6 10 9 8 6 9 9 11 15 13 21 15 13 15 13 13 9 6 7 11 9 12 18 21 23
14 12 9 6 4 2 3 4 3 3 3 3 3 3 5 6 4 4 7 5 8 7 7 7 5 9 4 8 5 6 11 14 19 20 17 12 14 10 11 9 11 13 15 19 22
13 11 9 5 1 2 3 4 3 2 2 2 2 1 4 3 6 7 6 4 8 6 4 7 6 4 7 2 6 11 10 14 17 17 15 11 16 16 11 10 12 12 14 18 22
12 10 8 3 3 5 5 3 2 2 2 1 1 1 3 2 0 8 9 3 7 6 4 8 6 4 7 11 9 8 13 12 15 9 14 12 18 17 7 11 18 16 16 18 21
10 8 5 3 7 7 6 4 1 2 2 1 3 3 4 2 2 8 9 10 7 11 8 7 7 8 8 9 11 9 9 8 11 7 10 18 17 19 11 10 14 20 21 22 23
7 4 3 6 9 6 3 2 1 1 4 6 3 4 1 3 6 6 12 9 10 9 7 8 9 9 5 4 9 8 10 12 9 5 11 14 15 16 19 16 17 19 22 25 28
5 1 3 8 8 7 7 1 4 3 4 3 4 6 8 2 5 6 12 11 9 10 6 8 10 2 3 4 7 9 12 13 10 7 7 14 19 20 18 19 21 24 25 26 28
4 2 6 8 7 5 3 0 8 6 5 3 2 6 3 9 3 6 11 11 9 9 9 9 6 4 5 6 9 11 13 13 12 12 13 17 19 20 18 27 22 18 21 24 28
3 5 9 6 5 5 3 8 10 3 5 4 3 5 5 5 5 4 1 7 6 5 4 6 2 8 8 9 8 12 7 9 12 11 10 2 13 13 13 16 18 22 19 21 24
3 7 11 11 6 2 4 9 4 2 5 4 7 5 11 4 3 9 10 5 3 2 6 6 2 3 6 5 4 10 3 8 11 13 15 16 11 14 16 13 16 21 23 17 17
4 8 11 10 6 5 6 4 1 6 3 4 6 6 4 18 9 4 5 10 3 5 5 9 5 6 13 10 9 14 13 16 16 14 15 19 18 17 13 15 13 18 18 19 15
6 9 9 9 5 4 3 2 5 5 0 5 5 5 10 10 8 13 15 16 8 4 2 3 3 5 17 12 7 7 12 12 14 13 14 14 15 10 10 11 11 12 15 12 8
11 9 7 3 4 3 2 6 6 3 5 4 4 6 6 6 7 9 5 9 17 11 3 4 8 11 9 10 9 14 10 10 20 16 16 10 8 6 2 8 12 23 23 22 22
9 5 4 1 3 3 7 4 5 3 3 4 1 3 6 6 4 4 12 7 12 14 8 6 3 8 6 13 7 7 8 13 12 18 18 18 24 18 6 12 17 21 25 27 29
7 2 10 1 2 3 2 5 3 4 3 2 1 4 2 6 2 4 6 9 5 10 8 5 7 5 10 9 6 10 10 8 9 16 22 15 17 10 13 12 14 19 25 29 31
2 3 13 2 6 3 2 5 8 8 3 5 4 4 7 3 7 4 6 7 8 7 7 5 2 7 8 8 12 9 3 6 7 9 14 17 15 9 11 16 19 25 32 34 34
3 3 13 5 3 5 5 7 5 7 9 6 7 8 7 4 7 5 6 6 7 6 4 7 3 8 8 5 7 8 9 10 5 9 9 10 15 9 8 19 30 35 36 35 34
3 4 11 5 4 7 12 15 12 4 7 3 4 7 4 4 5 7 6 7 7 6 6 6 3 6 6 7 7 7 13 12 11 12 16 14 12 2 18 30 37 36 36 35 33
3 2 12 16 14 16 14 7 7 9 14 11 7 6 5 8 5 7 9 5 6 7 5 4 1 4 6 8 9 13 15 14 12 11 17 22 28 28 31 31 38 36 37 39 38
5 5 3 4 9 10 9 7 10 5 6 6 5 6 3 5 9 9 6 10 5 2 1 3 2 6 7 9 9 11 13 15 16 16 17 24 26 27 26 27 30 46 41 41 40
5 6 15 13 10 11 4 8 11 9 3 5 6 5 5 9 7 8 3 3 4 4 2 3 3 7 12 4 12 11 4 6 10 12 17 24 30 24 36 38 32 34 37 43 42
16 14 7 6 6 6 6 4 7 5 6 7 4 7 9 9 5 3 2 2 2 3 4 4 7 7 5 14 12 5 12 14 16 17 22 26 33 40 35 30 27 33 36 43 45